Tracking 29892 objects as of 21-Nov-2024
HD Live streaming from Space Station
objects crossing your sky now

FORMOSAT 3E

Track FORMOSAT 3E now!
10-day predictions
FORMOSAT 3E is classified as:


NORAD ID: 29051
Int'l Code: 2006-011E
Perigee: 748.7 km
Apogee: 844.8 km
Inclination: 72.0 °
Period: 100.7 minutes
Semi major axis: 7167 km
RCS: 0.58 m2 (medium)
Launch date: April 15, 2006
Source: Taiwan (Republic of China) (ROC)
Launch site: AIR FORCE WESTERN TEST RANGE (AFWTR)
Your satellite tracking list
Your tracking list is empty




NASA's NSSDC Master Catalog

Two Line Element Set (TLE):
1 29051U 06011E   24325.60752505  .00000849  00000-0  33267-3 0  9996
2 29051  72.0055  35.2660 0067020   4.2324 355.9365 14.30635313973206
Source of the keplerian elements: AFSPC